Flag for Norway Weather past 2 weeks in Osøyro, Norway

Now
39 °F

Light fog.


Feels Like: 39 °F
Forecast: 43 / 47 °F
Wind: 2 mph from Southeast

Location: Bergen / Flesland

Current Time: Mar 6, 2015 at 9:06:49 AM

Latest Report: Mar 6, 2015 at 8:00 AM


Visibility: 6 mi

Pressure: 30.18 "Hg

Humidity: 96%

Dew point: 38 °F

Location of OsøyroLocation

Historic Weather in Osøyro — Graph

°F

Osøyro temperature yesterday

Maximum temperature yesterday: 44 °F (at 11:00 PM)
Minimum temperature yesterday: 35 °F (at 1:00 AM)
Average temperature yesterday: 39 °F

Past Weeks' High & Low Weather Summary

 TemperatureHumidityPressure
High45 °F (Feb 19, 11:00 AM)97% (Mar 5, 4:00 PM)30.27 "Hg (Mar 5, 4:00 PM)
Low31 °F (Mar 4, 8:00 AM)50% (Feb 24, 12:00 PM)28.58 "Hg (Feb 23, 7:00 AM)
Average39 °F87%29.41 "Hg
* Reported Feb 19 7:00 AM — Mar 6 7:00 AM, Osøyro, Weather by CustomWeather, © 2015

Note: Actual official high and low records may vary slightly from our data, if they occured in-between our weather recording intervals... More about our weather records

Advertising

Osøyro weather history for previous 24 hours

 ConditionsComfort  
Time TempWeatherWind HumidityBarometerVisibility
7:00 AM
Fri, Mar 6
36 °FPassing clouds.2 mph93%30.17 "Hg6 mi
6:00 AM40 °FClear.3 mph90%30.16 "Hg7 mi
5:00 AM41 °FOvercast.2 mph87%30.14 "Hg8 mi
3:00 AM43 °FOvercast.5 mph87%30.13 "Hg7 mi
2:00 AM44 °FLow clouds.6 mph89%30.12 "Hg7 mi
1:00 AM44 °FLow clouds.7 mph90%30.11 "Hg8 mi
12:00 AM44 °FLow clouds.6 mph92%30.10 "Hg6 mi
11:00 PM
Thu, Mar 5
44 °FLow clouds.6 mph94%30.09 "Hg6 mi
9:00 PM43 °FLight rain. Overcast.8 mph96%30.09 "Hg4 mi
7:00 PM43 °FRain. Low clouds.10 mph95%30.10 "Hg3 mi
6:00 PM43 °FLight rain. Low clouds.9 mph96%30.10 "Hg3 mi
5:00 PM43 °FRain showers. Overcast.10 mph96%30.11 "Hg7 mi
4:00 PM42 °FLight rain. Low clouds.10 mph97%30.13 "Hg5 mi
3:00 PM41 °FLight rain. Low clouds.10 mph96%30.15 "Hg4 mi
2:00 PM40 °FLight rain. Low clouds.10 mph96%30.16 "Hg3 mi
1:00 PM38 °FDrizzle. Low clouds.10 mph95%30.19 "Hg3 mi
12:00 PM38 °FLight rain. Overcast.9 mph93%30.20 "Hg8 mi
11:00 AM36 °FLight rain. Low clouds.10 mph94%30.23 "Hg7 mi
10:00 AM36 °FRain. Low clouds.10 mph93%30.25 "Hg4 mi
9:00 AM37 °FLight rain. Overcast.9 mph94%30.24 "Hg6 mi
Weather by CustomWeather, © 2015

See weather overviewHow to use our weather pages